This demonstration page uses our WeatherBlox Daily Observations layout. Learn more.

Left ArrowRight Arrow

44.8408, -93.29828

Hourly Observations for November 29, 2016

Temp ( °F °C ) Dew Point ( °F °C ) Humidity (%) Winds ( mph kmh ) Pressure ( in mb ) Visibility ( mi km ) Precip ( " mm )
12:14 am 00:14 Cloudy 38 3.3 31 -0.6 76 76 SW 9 15 29.06 984 10 16 0.00 0.00
12:29 am 00:29 Cloudy with Light Rain 37 2.8 31 -0.6 79 79 SW 10 17 29.06 984 10 16 0.00 0.03
12:53 am 00:53 Cloudy with Light Rain 37 2.8 31 -0.6 79 79 SSW 9 15 29.05 984 10 16 0.00 0.03
1:53 am 01:53 Cloudy with Light Rain 36 2.2 31 -0.6 82 82 SW 12 19 29.06 984 8 13 0.00 0.03
2:09 am 02:09 Cloudy 36 2.2 32 0 86 86 SSW 8 13 29.09 985 10 16 0.01 0.25
2:53 am 02:53 Cloudy 36 2.2 32 0 86 86 SSW 12 19 29.08 985 10 16 0.01 0.25
3:53 am 03:53 Cloudy 35 1.7 31 -0.6 85 85 SW 9 15 29.09 985 10 16 0.00 0.03
4:53 am 04:53 Cloudy 35 1.7 31 -0.6 85 85 SW 13 20 29.10 985 10 16 0.00 0.00
5:53 am 05:53 Cloudy 35 1.7 31 -0.6 85 85 SW 10 17 29.13 986 10 16 0.00 0.00
6:53 am 06:53 Cloudy 35 1.7 31 -0.6 85 85 SW 10 17 29.16 988 10 16 0.00 0.00
7:14 am 07:14 Cloudy 36 2.2 30 -1.1 79 79 SW 13 20 29.18 988 10 16 0.00 0.00
7:53 am 07:53 Cloudy 36 2.2 30 -1.1 79 79 SW 13 20 29.20 989 10 16 0.00 0.00
8:53 am 08:53 Cloudy 36 2.2 29 -1.7 76 76 SW 12 19 29.23 990 10 16 0.00 0.03
9:53 am 09:53 Cloudy 36 2.2 29 -1.7 76 76 SW 13 20 29.26 991 10 16 0.00 0.00
10:53 am 10:53 Cloudy 36 2.2 29 -1.7 76 76 SW 10 17 29.29 992 9 14 0.00 0.03
11:53 am 11:53 Cloudy 37 2.8 29 -1.7 73 73 SSW 14 22 29.30 992 10 16 0.00 0.00
12:53 pm 12:53 Cloudy 37 2.8 29 -1.7 73 73 SW 15 24 29.32 993 10 16 0.00 0.00
1:53 pm 13:53 Cloudy 37 2.8 29 -1.7 73 73 SSW 12 19 29.33 993 10 16 0.00 0.00
2:53 pm 14:53 Cloudy 37 2.8 29 -1.7 73 73 SSW 10 17 29.36 994 10 16 0.00 0.00
3:53 pm 15:53 Cloudy 37 2.8 29 -1.7 73 73 SSW 12 19 29.38 995 10 16 0.00 0.00
4:53 pm 16:53 Cloudy 37 2.8 30 -1.1 76 76 S 10 17 29.40 996 10 16 0.00 0.00
5:53 pm 17:53 Cloudy 37 2.8 30 -1.1 76 76 S 12 19 29.41 996 10 16 0.00 0.00
6:53 pm 18:53 Cloudy 37 2.8 30 -1.1 76 76 S 10 17 29.42 996 10 16 0.00 0.00
7:53 pm 19:53 Cloudy 37 2.8 31 -0.6 79 79 S 9 15 29.42 996 10 16 0.00 0.00
8:53 pm 20:53 Cloudy 37 2.8 31 -0.6 79 79 S 7 11 29.43 997 10 16 0.00 0.00
9:19 pm 21:19 Cloudy with Light Rain 37 2.8 32 0 82 82 S 9 15 29.44 997 10 16 0.00 0.03
9:53 pm 21:53 Cloudy with Drizzle 36 2.2 32 0 86 86 S 8 13 29.44 997 10 16 0.00 0.03
10:53 pm 22:53 Cloudy with Drizzle 36 2.2 33 0.6 89 89 S 7 11 29.44 997 9 14 0.00 0.03
11:53 pm 23:53 Cloudy with Drizzle 36 2.2 33 0.6 89 89 S 6 9 29.44 997 10 16 0.00 0.03

Powered by AerisWeather